CW3816 Weather Reports


Display with metric or nautical units.
time (UTC)temp
F
wind
direction
speed
MPH
gust
MPH
rain 1hr
in
rain 24hr
in
rain mn
in
humidity
%
barometer
mb
20260510044842 56 198 0.0 0.0 0.00 0.00 0.00 83 1009.8
20260510043348 57 198 0.0 0.0 0.00 0.00 0.00 82 1009.6
20260510041905 57 198 0.0 0.0 0.00 0.00 0.00 82 1009.6
20260510040346 57 198 0.0 0.0 0.00 0.00 0.00 81 1009.8
20260510034853 58 198 0.0 0.0 0.00 0.00 0.00 80 1009.7
20260510033355 58 198 0.0 0.0 0.00 0.00 0.00 78 1009.5
20260510031853 59 198 0.0 0.0 0.00 0.00 0.00 76 1009.3
20260510030340 59 198 0.0 0.0 0.00 0.00 0.00 76 1009.3
20260510024856 60 198 0.0 0.0 0.00 0.00 0.00 75 1009.0
20260510023420 61 198 0.0 0.0 0.00 0.00 0.00 72 1009.0
20260510021839 62 198 0.0 0.0 0.00 0.00 0.00 70 1009.0
20260510020343 63 198 0.0 0.0 0.00 0.00 0.00 67 1008.8
20260510014900 64 198 0.0 0.0 0.00 0.00 0.00 66 1008.5
20260510013342 65 198 0.0 0.0 0.00 0.00 0.00 63 1008.3
20260510011842 66 198 0.0 0.0 0.00 0.00 0.00 61 1008.0
20260510010342 67 198 0.0 0.0 0.00 0.00 0.00 58 1008.0
20260510004839 68 198 0.0 0.0 0.00 0.00 0.00 56 1007.8
20260510003403 69 198 0.0 0.0 0.00 0.00 0.00 53 1007.5
20260510001843 71 198 0.0 0.0 0.00 0.00 0.00 52 1007.5
20260510000404 72 198 0.0 0.0 0.00 0.00 0.00 49 1007.5
20260509234843 72 198 0.0 0.0 0.00 0.00 0.00 47 1007.2
20260509233346 73 206 0.0 0.0 0.00 0.00 0.00 46 1007.1
20260509231847 73 226 0.0 0.0 0.00 0.00 0.00 44 1007.1
20260509230347 74 264 0.0 0.0 0.00 0.00 0.00 44 1007.1
20260509224908 74 264 0.0 0.0 0.00 0.00 0.00 44 1007.0
20260509223415 74 264 0.0 0.0 0.00 0.00 0.00 45 1007.1
20260509221914 75 95 0.0 0.0 0.00 0.00 0.00 43 1007.2
20260509220354 75 17 0.0 0.0 0.00 0.00 0.00 43 1007.1
20260509214917 75 313 0.0 0.0 0.00 0.00 0.00 41 1007.1
20260509213341 76 3 0.0 0.0 0.00 0.00 0.00 39 1007.1
20260509211844 77 220 0.0 0.0 0.00 0.00 0.00 38 1007.0
20260509210345 78 110 0.0 0.0 0.00 0.00 0.00 37 1006.9
20260509204906 79 148 0.0 0.0 0.00 0.00 0.00 35 1006.9
20260509203348 79 73 0.0 0.0 0.00 0.00 0.00 38 1006.8
20260509201848 79 188 0.0 0.0 0.00 0.00 0.00 37 1006.9
20260509200354 79 169 0.0 0.0 0.00 0.00 0.00 38 1007.0
20260509194851 79 100 1.0 0.0 0.00 0.00 0.00 37 1007.4
20260509193351 78 336 0.0 0.0 0.00 0.00 0.00 40 1007.5
20260509191912 79 80 0.0 0.0 0.00 0.00 0.00 38 1007.7
20260509190358 79 85 0.0 0.0 0.00 0.00 0.00 38 1007.9
20260509184854 80 79 0.0 0.0 0.00 0.00 0.00 37 1008.1
20260509183354 78 119 0.0 0.0 0.00 0.00 0.00 41 1008.4
20260509181834 76 86 0.0 0.0 0.00 0.00 0.00 44 1008.6
20260509180401 75 37 0.0 0.0 0.00 0.00 0.00 46 1008.8
20260509174840 72 208 0.0 0.0 0.00 0.00 0.00 53 1009.0
20260509173344 72 45 0.0 0.0 0.00 0.00 0.00 53 1009.0
20260509171840 71 59 0.0 0.0 0.00 0.00 0.00 52 1009.2
20260509170341 72 126 0.0 0.0 0.00 0.00 0.00 51 1009.4
20260509164838 70 263 0.0 0.0 0.00 0.00 0.00 54 1009.5
20260509163344 70 360 0.0 0.0 0.00 0.00 0.00 52 1009.5
20260509161841 70 174 0.0 0.0 0.00 0.00 0.00 53 1009.5
20260509160340 71 117 0.0 0.0 0.00 0.00 0.00 52 1009.6
20260509154844 71 104 0.0 0.0 0.00 0.00 0.00 51 1009.5
20260509153347 70 68 0.0 0.0 0.00 0.00 0.00 51 1009.7
20260509151842 70 89 0.0 0.0 0.00 0.00 0.00 50 1010.0
20260509150410 68 86 0.0 0.0 0.00 0.00 0.00 53 1009.8
20260509144845 67 48 0.0 0.0 0.00 0.00 0.00 54 1010.1
20260509143346 65 83 0.0 0.0 0.00 0.00 0.00 57 1010.4
20260509141846 64 270 0.0 0.0 0.00 0.00 0.00 58 1010.6
20260509140353 63 86 0.0 0.0 0.00 0.00 0.00 59 1010.6
20260509134853 62 48 0.0 0.0 0.00 0.00 0.00 61 1010.9
20260509133352 61 240 0.0 0.0 0.00 0.00 0.00 61 1011.0
20260509131857 60 35 0.0 0.0 0.00 0.00 0.00 64 1011.0
20260509130356 59 47 0.0 0.0 0.00 0.00 0.00 65 1011.0
20260509124853 58 200 0.0 0.0 0.00 0.00 0.00 66 1011.1
20260509123356 58 59 0.0 0.0 0.00 0.00 0.00 67 1011.1
20260509121853 57 73 0.0 0.0 0.00 0.00 0.00 68 1010.9
20260509120355 57 234 0.0 0.0 0.00 0.00 0.00 69 1010.9
20260509114850 56 27 0.0 0.0 0.00 0.00 0.00 69 1011.1
20260509113357 55 117 0.0 0.0 0.00 0.00 0.00 71 1011.0
20260509111854 55 86 0.0 0.0 0.00 0.00 0.00 70 1011.0
20260509110400 54 86 0.0 0.0 0.00 0.00 0.00 70 1010.9
20260509104901 54 86 0.0 0.0 0.00 0.00 0.00 69 1010.8
20260509103404 54 83 0.0 0.0 0.00 0.00 0.00 68 1010.8
20260509101901 54 164 0.0 0.0 0.00 0.00 0.00 67 1010.8
20260509100348 54 164 0.0 0.0 0.00 0.00 0.00 67 1010.6
20260509094842 54 241 0.0 0.0 0.00 0.00 0.00 66 1010.7
20260509093344 54 244 0.0 0.0 0.00 0.00 0.00 65 1010.8
20260509091841 54 257 0.0 0.0 0.00 0.00 0.00 66 1010.9
20260509090344 54 270 0.0 0.0 0.00 0.00 0.00 63 1010.9
20260509084859 54 248 0.0 0.0 0.00 0.00 0.00 64 1011.1
20260509083339 54 248 0.0 0.0 0.00 0.00 0.00 64 1011.2
20260509081843 54 250 0.0 0.0 0.00 0.00 0.00 64 1011.4
20260509080342 54 251 0.0 0.0 0.00 0.00 0.00 64 1011.6
20260509074856 54 251 0.0 0.0 0.00 0.00 0.00 63 1011.6
20260509073400 55 251 0.0 0.0 0.00 0.00 0.00 64 1011.7
20260509071855 55 251 0.0 0.0 0.00 0.00 0.00 61 1011.7
20260509070355 55 251 0.0 0.0 0.00 0.00 0.00 60 1011.9
20260509064858 55 251 0.0 0.0 0.00 0.00 0.00 62 1011.8
20260509063357 54 251 0.0 0.0 0.00 0.00 0.00 60 1011.8
20260509061854 55 251 0.0 0.0 0.00 0.00 0.00 57 1011.9
20260509060342 55 251 0.0 0.0 0.00 0.00 0.00 56 1012.0
20260509054841 55 251 0.0 0.0 0.00 0.00 0.00 55 1011.8
20260509053345 56 248 0.0 0.0 0.00 0.00 0.00 53 1011.8
20260509051842 56 248 0.0 0.0 0.00 0.00 0.00 54 1011.8
20260509050346 55 248 0.0 0.0 0.00 0.00 0.00 56 1011.8